This is the latest recevied weather packets stored in our database for station/object DG6YGE-6. If no packets are shown the sender has not sent any weather packets the latest 10 day(s).
| Time | Temp. | Humidity | Pressure | Rain* | Wind** | Luminosity | Snow |
|---|---|---|---|---|---|---|---|
| 1788194351 | 17.78° C | 82% | 1010 hPa | 0 mm | - | 120 W/m² | - |
| 1788193751 | 17.78° C | 82% | 1009.8 hPa | 0 mm | - | 78 W/m² | - |
| 1788193150 | 17.78° C | 84% | 1009.8 hPa | 0 mm | - | 242 W/m² | - |
| 1788192551 | 17.22° C | 84% | 1009.7 hPa | 0 mm | - | 219 W/m² | - |
| 1788191950 | 17.22° C | 84% | 1009.6 hPa | 0 mm | - | 199 W/m² | - |
| 1788191351 | 17.22° C | 85% | 1009.4 hPa | 0 mm | - | 195 W/m² | - |
| 1788190750 | 17.22° C | 85% | 1009.3 hPa | 0 mm | - | 154 W/m² | - |
| 1788190151 | 17.22° C | 86% | 1009.2 hPa | 0 mm | - | 107 W/m² | - |
| 1788189550 | 17.22° C | 87% | 1009.1 hPa | 0 mm | - | 58 W/m² | - |
| 1788188950 | 17.22° C | 89% | 1008.9 hPa | 0.25 mm | - | 140 W/m² | - |
| 1788188351 | 17.22° C | 90% | 1009 hPa | 1.27 mm | - | 212 W/m² | - |
| 1788187750 | 17.22° C | 90% | 1009 hPa | 1.27 mm | - | 155 W/m² | - |
| 1788187151 | 17.22° C | 91% | 1009.3 hPa | 1.27 mm | - | 443 W/m² | - |
| 1788186550 | 17.22° C | 86% | 1009.2 hPa | 1.27 mm | - | 459 W/m² | - |
| 1788185950 | 17.22° C | 86% | 1009.2 hPa | 1.27 mm | - | 187 W/m² | - |
| 1788185351 | 18.33° C | 82% | 1009.4 hPa | 1.02 mm | - | 30 W/m² | - |
| 1788184750 | 19.44° C | 77% | 1009.4 hPa | 0 mm | - | 23 W/m² | - |
| 1788184150 | 19.44° C | 72% | 1008.8 hPa | 0 mm | - | 83 W/m² | - |
| 1788183550 | 20° C | 72% | 1008.9 hPa | 0 mm | - | 164 W/m² | - |
| 1788182950 | 20.56° C | 70% | 1008.8 hPa | 0 mm | - | 344 W/m² | - |
| 1788182350 | 20.56° C | 72% | 1008.9 hPa | 0 mm | - | 670 W/m² | - |
| 1788181750 | 20.56° C | 72% | 1008.6 hPa | 0 mm | - | 585 W/m² | - |
| 1788181151 | 20° C | 71% | 1008.7 hPa | 0 mm | - | 648 W/m² | - |
| 1788180550 | 20° C | 71% | 1008.6 hPa | 0 mm | - | 701 W/m² | - |
| 1788179950 | 20° C | 68% | 1008.2 hPa | 0 mm | - | 163 W/m² | - |
* Rain latest hour (hover to see other rain measurements)
** Current wind speed in m/s (hover to see current wind gust speed)